TimeMST,TemperatureF,Dew PointF,Humidity,Sea Level PressureIn,VisibilityMPH,Wind Direction,Wind SpeedMPH,Gust SpeedMPH,PrecipitationIn,Events,Conditions,WindDirDegrees,DateUTC
12:56 AM,7.0,1.9,80,30.45,-9999.0,Variable,3.5,-,N/A,,Unknown,0,2012-12-20 07:56:00
1:56 AM,7.0,1.9,80,30.44,-9999.0,Variable,3.5,-,N/A,,Unknown,0,2012-12-20 08:56:00
2:56 AM,7.0,1.9,80,30.46,-9999.0,Variable,3.5,-,N/A,,Unknown,0,2012-12-20 09:56:00
3:56 AM,6.1,1.0,80,30.48,-9999.0,Calm,Calm,-,N/A,,Unknown,0,2012-12-20 10:56:00
4:56 AM,5.0,-0.0,80,30.51,-9999.0,Calm,Calm,-,N/A,,Unknown,0,2012-12-20 11:56:00
5:56 AM,3.9,-0.9,80,30.54,-9999.0,Calm,Calm,-,N/A,,Unknown,0,2012-12-20 12:56:00
6:56 AM,-0.0,-4.0,83,30.55,-9999.0,Calm,Calm,-,N/A,,Unknown,0,2012-12-20 13:56:00
7:56 AM,-2.9,-7.1,82,30.58,-9999.0,Calm,Calm,-,N/A,,Unknown,0,2012-12-20 14:56:00
8:56 AM,1.0,-4.0,79,30.56,-9999.0,Calm,Calm,-,N/A,,Unknown,0,2012-12-20 15:56:00
9:56 AM,7.0,-0.0,73,30.53,-9999.0,Calm,Calm,-,N/A,,Unknown,0,2012-12-20 16:56:00
10:56 AM,9.0,1.0,70,30.50,-9999.0,Calm,Calm,-,N/A,,Unknown,0,2012-12-20 17:56:00
11:56 AM,10.9,1.0,64,30.47,-9999.0,Calm,Calm,-,N/A,,Unknown,0,2012-12-20 18:56:00
12:56 PM,12.9,1.9,62,30.43,-9999.0,Calm,Calm,-,N/A,,Unknown,0,2012-12-20 19:56:00
1:56 PM,16.0,3.0,57,30.38,-9999.0,Calm,Calm,-,N/A,,Unknown,0,2012-12-20 20:56:00
2:56 PM,17.1,1.9,52,30.38,-9999.0,Calm,Calm,-,N/A,,Unknown,0,2012-12-20 21:56:00
3:56 PM,16.0,3.0,57,30.38,-9999.0,Calm,Calm,-,N/A,,Unknown,0,2012-12-20 22:56:00
4:56 PM,9.0,3.9,80,30.43,-9999.0,Calm,Calm,-,N/A,,Unknown,0,2012-12-20 23:56:00
5:56 PM,6.1,1.0,80,30.46,-9999.0,NW,3.5,-,N/A,,Unknown,310,2012-12-21 00:56:00
6:56 PM,3.0,-0.9,84,30.50,-9999.0,WNW,3.5,-,N/A,,Unknown,300,2012-12-21 01:56:00
7:56 PM,1.0,-2.9,83,30.53,-9999.0,NW,4.6,-,N/A,,Unknown,310,2012-12-21 02:56:00
8:56 PM,-0.0,-4.0,83,30.50,-9999.0,Calm,Calm,-,N/A,,Unknown,0,2012-12-21 03:56:00
9:56 PM,-0.0,-4.0,83,30.46,-9999.0,NW,3.5,-,N/A,,Unknown,310,2012-12-21 04:56:00
10:56 PM,-0.9,-5.1,83,30.47,-9999.0,NW,3.5,-,N/A,,Unknown,310,2012-12-21 05:56:00
11:56 PM,-2.0,-7.1,79,30.44,-9999.0,Calm,Calm,-,N/A,,Unknown,0,2012-12-21 06:56:00